sat.trackr.live / text

‹ back to catalog

STARLINK-31919

NORAD 59880 · 2024-098Y

PAYLOAD ACTIVE UNKNOWN

§ Identity

Operator
Country
US
Launch date
2024-05-24
Launch site
AFETR
Launch vehicle
Mass (kg)
RCS (m²)

Purposes: comms

External: N2YO · Heavens-Above · Gunter

§ Orbital elements

Epoch: 2026-05-25T04:16:51.019392Z

Period
94.27 min
Inclination
43.0004°
Eccentricity
0.0001300
Mean motion
15.27576658 rev/d
Perigee alt
482.2 km
Apogee alt
484.0 km
Semi-major
6,861.2 km
B*
9.4333e-5
RAAN
206.0653°
Arg perigee
274.1184°
Mean anomaly
85.9519°
Rev number
11,354

§ Raw data

STARLINK-319191 59880U 24098Y   26145.17836828  .00002334  00000+0  94333-4 0  99912 59880  43.0004 206.0653 0001300 274.1184  85.9519 15.27576658113549

JSON: /api/v1/satellites/59880 · /tle

For live sub-satellite position, see the globe view (requires WebGL).

§ Visibility from observer

Set your observer location to see the next 7 days of passes ≥ 10°. The values pass through the URL so the page stays shareable.

No JS? Fill the form by hand. The geolocation button needs JavaScript.